Time,TemperatureF,DewpointF,PressureIn,WindDirection,WindDirectionDegrees,WindSpeedMPH,WindSpeedGustMPH,Humidity,HourlyPrecipIn,Conditions,Clouds,dailyrainin,SolarRadiationWatts/m^2,SoftwareType,DateUTC
2013-05-04 00:01:00,78.0,34.0,-100.00,SW,218,0.0,4.0,20,0.00,,,0.00,1.000000,,2013-05-04 07:01:00,
2013-05-04 00:11:00,78.0,34.0,-100.00,SW,218,0.0,4.0,20,0.00,,,0.00,1.000000,,2013-05-04 07:11:00,
2013-05-04 00:42:00,76.0,38.0,-100.00,East,100,6.0,8.0,25,0.00,,,-99.99,1.000000,,2013-05-04 07:42:00,
2013-05-04 00:52:00,76.0,38.0,-100.00,East,100,6.0,8.0,25,0.00,,,-99.99,1.000000,,2013-05-04 07:52:00,
2013-05-04 01:01:00,76.0,38.0,-100.00,East,100,6.0,8.0,25,0.00,,,-99.99,1.000000,,2013-05-04 08:01:00,
2013-05-04 01:11:00,76.0,38.0,-100.00,East,100,6.0,8.0,25,0.00,,,-99.99,1.000000,,2013-05-04 08:11:00,
2013-05-04 01:42:00,77.0,34.0,-100.00,East,98,7.0,8.0,21,0.00,,,0.00,1.000000,,2013-05-04 08:42:00,
2013-05-04 01:52:00,77.0,34.0,-100.00,East,98,7.0,8.0,21,0.00,,,0.00,1.000000,,2013-05-04 08:52:00,
2013-05-04 02:02:00,77.0,34.0,-100.00,East,98,7.0,8.0,21,0.00,,,0.00,1.000000,,2013-05-04 09:02:00,
2013-05-04 02:11:00,77.0,34.0,-100.00,East,98,7.0,8.0,21,0.00,,,0.00,1.000000,,2013-05-04 09:11:00,
2013-05-04 02:42:00,76.0,32.0,-100.00,ESE,105,6.0,7.0,20,0.00,,,0.00,1.000000,,2013-05-04 09:42:00,
2013-05-04 02:53:00,76.0,32.0,-100.00,ESE,105,6.0,7.0,20,0.00,,,0.00,1.000000,,2013-05-04 09:53:00,
2013-05-04 03:02:00,76.0,32.0,-100.00,ESE,105,6.0,7.0,20,0.00,,,0.00,1.000000,,2013-05-04 10:02:00,
2013-05-04 03:12:00,76.0,32.0,-100.00,ESE,105,6.0,7.0,20,0.00,,,0.00,1.000000,,2013-05-04 10:12:00,
2013-05-04 03:33:00,70.0,39.0,-100.00,NW,317,0.0,6.0,32,0.00,,,0.00,1.000000,,2013-05-04 10:33:00,
2013-05-04 03:42:00,70.0,39.0,-100.00,NW,317,0.0,6.0,32,0.00,,,0.00,1.000000,,2013-05-04 10:42:00,
2013-05-04 03:53:00,70.0,39.0,-100.00,NW,317,0.0,6.0,32,0.00,,,0.00,1.000000,,2013-05-04 10:53:00,
2013-05-04 04:02:00,70.0,39.0,-100.00,NW,317,0.0,6.0,32,0.00,,,0.00,1.000000,,2013-05-04 11:02:00,
2013-05-04 04:11:00,70.0,39.0,-100.00,NW,317,0.0,6.0,32,0.00,,,0.00,1.000000,,2013-05-04 11:11:00,
2013-05-04 04:32:00,68.0,40.0,-100.00,WNW,292,0.0,0.0,36,0.00,,,0.00,1.000000,,2013-05-04 11:32:00,
2013-05-04 05:04:00,68.0,40.0,-100.00,WNW,292,0.0,0.0,36,0.00,,,0.00,1.000000,,2013-05-04 12:04:00,
2013-05-04 05:12:00,68.0,40.0,-100.00,WNW,292,0.0,0.0,36,0.00,,,0.00,1.000000,,2013-05-04 12:12:00,
2013-05-04 05:42:00,69.0,31.0,-100.00,ESE,121,2.0,4.0,24,0.00,,,0.00,1.000000,,2013-05-04 12:42:00,
2013-05-04 05:52:00,69.0,31.0,-100.00,ESE,121,2.0,4.0,24,0.00,,,0.00,1.000000,,2013-05-04 12:52:00,
2013-05-04 06:01:00,69.0,31.0,-100.00,ESE,121,2.0,4.0,24,0.00,,,0.00,1.000000,,2013-05-04 13:01:00,
2013-05-04 06:42:00,68.0,30.0,-100.00,WNW,295,0.0,5.0,24,0.00,,,0.00,7.000000,,2013-05-04 13:42:00,
2013-05-04 06:52:00,68.0,30.0,-100.00,WNW,295,0.0,5.0,24,0.00,,,0.00,7.000000,,2013-05-04 13:52:00,
2013-05-04 07:02:00,68.0,30.0,-100.00,WNW,295,0.0,5.0,24,0.00,,,0.00,7.000000,,2013-05-04 14:02:00,
2013-05-04 07:11:00,68.0,30.0,-100.00,WNW,295,0.0,5.0,24,0.00,,,0.00,7.000000,,2013-05-04 14:11:00,
2013-05-04 07:42:00,70.0,32.0,-100.00,SE,127,7.0,8.0,24,0.00,,,0.00,130.000000,,2013-05-04 14:42:00,
2013-05-04 07:52:00,70.0,32.0,-100.00,SE,127,7.0,8.0,24,0.00,,,0.00,130.000000,,2013-05-04 14:52:00,
2013-05-04 08:01:00,70.0,32.0,-100.00,SE,127,7.0,8.0,24,0.00,,,0.00,130.000000,,2013-05-04 15:01:00,
2013-05-04 08:11:00,70.0,32.0,-100.00,SE,127,7.0,8.0,24,0.00,,,0.00,130.000000,,2013-05-04 15:11:00,
2013-05-04 08:43:00,74.0,47.0,-100.00,SSE,152,9.0,13.0,39,0.00,,,0.00,348.000000,,2013-05-04 15:43:00,
2013-05-04 09:33:00,79.0,52.0,-100.00,South,172,10.0,14.0,39,0.00,,,0.00,568.000000,,2013-05-04 16:33:00,
2013-05-04 10:32:00,86.0,44.0,-100.00,South,186,7.0,13.0,23,0.00,,,0.00,768.000000,,2013-05-04 17:32:00,
2013-05-04 10:42:00,86.0,44.0,-100.00,South,186,7.0,13.0,23,0.00,,,0.00,768.000000,,2013-05-04 17:42:00,
2013-05-04 10:52:00,86.0,44.0,-100.00,South,186,7.0,13.0,23,0.00,,,0.00,768.000000,,2013-05-04 17:52:00,
2013-05-04 11:01:00,86.0,44.0,-100.00,South,186,7.0,13.0,23,0.00,,,0.00,768.000000,,2013-05-04 18:01:00,
2013-05-04 11:12:00,86.0,44.0,-100.00,South,186,7.0,13.0,23,0.00,,,0.00,768.000000,,2013-05-04 18:12:00,
2013-05-04 11:42:00,91.0,37.0,-100.00,South,185,2.0,11.0,15,0.00,,,0.00,926.000000,,2013-05-04 18:42:00,
2013-05-04 11:52:00,91.0,37.0,-100.00,South,185,2.0,11.0,15,0.00,,,0.00,926.000000,,2013-05-04 18:52:00,
2013-05-04 12:01:00,91.0,37.0,-100.00,South,185,2.0,11.0,15,0.00,,,0.00,926.000000,,2013-05-04 19:01:00,
2013-05-04 12:11:00,91.0,37.0,-100.00,South,185,2.0,11.0,15,0.00,,,0.00,926.000000,,2013-05-04 19:11:00,
2013-05-04 12:42:00,92.0,38.0,-100.00,South,175,7.0,11.0,15,0.00,,,0.00,1018.000000,,2013-05-04 19:42:00,
2013-05-04 12:52:00,92.0,38.0,-100.00,South,175,7.0,11.0,15,0.00,,,0.00,1018.000000,,2013-05-04 19:52:00,
2013-05-04 13:02:00,92.0,38.0,-100.00,South,175,7.0,11.0,15,0.00,,,0.00,1018.000000,,2013-05-04 20:02:00,
2013-05-04 13:11:00,92.0,38.0,-100.00,South,175,7.0,11.0,15,0.00,,,0.00,1018.000000,,2013-05-04 20:11:00,
2013-05-04 13:42:00,94.0,31.0,-100.00,South,169,8.0,16.0,11,0.00,,,0.00,1034.000000,,2013-05-04 20:42:00,
2013-05-04 13:52:00,94.0,31.0,-100.00,South,169,8.0,16.0,11,0.00,,,0.00,1034.000000,,2013-05-04 20:52:00,
2013-05-04 14:02:00,94.0,31.0,-100.00,South,169,8.0,16.0,11,0.00,,,0.00,1034.000000,,2013-05-04 21:02:00,
2013-05-04 14:11:00,94.0,31.0,-100.00,South,169,8.0,16.0,11,0.00,,,0.00,1034.000000,,2013-05-04 21:11:00,
2013-05-04 14:43:00,96.0,28.0,-100.00,SSW,200,13.0,20.0,9,0.00,,,0.00,996.000000,,2013-05-04 21:43:00,
2013-05-04 14:53:00,96.0,28.0,-100.00,SSW,200,13.0,20.0,9,0.00,,,0.00,996.000000,,2013-05-04 21:53:00,
2013-05-04 15:02:00,96.0,28.0,-100.00,SSW,200,13.0,20.0,9,0.00,,,0.00,996.000000,,2013-05-04 22:02:00,
2013-05-04 15:12:00,96.0,28.0,-100.00,SSW,200,13.0,20.0,9,0.00,,,0.00,996.000000,,2013-05-04 22:12:00,
2013-05-04 15:42:00,97.0,23.0,-100.00,SSW,207,13.0,28.0,7,0.00,,,0.00,891.000000,,2013-05-04 22:42:00,
2013-05-04 15:52:00,97.0,23.0,-100.00,SSW,207,13.0,28.0,7,0.00,,,0.00,891.000000,,2013-05-04 22:52:00,
2013-05-04 16:02:00,97.0,23.0,-100.00,SSW,207,13.0,28.0,7,0.00,,,0.00,891.000000,,2013-05-04 23:02:00,
2013-05-04 16:11:00,97.0,23.0,-100.00,SSW,207,13.0,28.0,7,0.00,,,0.00,891.000000,,2013-05-04 23:11:00,
2013-05-04 16:42:00,95.0,27.0,-100.00,South,170,14.0,23.0,9,0.00,,,0.00,717.000000,,2013-05-04 23:42:00,
2013-05-04 16:52:00,95.0,27.0,-100.00,South,170,14.0,23.0,9,0.00,,,0.00,717.000000,,2013-05-04 23:52:00,
2013-05-04 17:01:00,95.0,27.0,-100.00,South,170,14.0,23.0,9,0.00,,,0.00,717.000000,,2013-05-05 00:01:00,
2013-05-04 17:11:00,95.0,27.0,-100.00,South,170,14.0,23.0,9,0.00,,,0.00,717.000000,,2013-05-05 00:11:00,
2013-05-04 17:42:00,94.0,27.0,-100.00,South,170,13.0,22.0,9,0.00,,,0.00,461.000000,,2013-05-05 00:42:00,
2013-05-04 17:52:00,94.0,27.0,-100.00,South,170,13.0,22.0,9,0.00,,,0.00,461.000000,,2013-05-05 00:52:00,
2013-05-04 18:01:00,94.0,27.0,-100.00,South,170,13.0,22.0,9,0.00,,,0.00,461.000000,,2013-05-05 01:01:00,
2013-05-04 18:11:00,94.0,27.0,-100.00,South,170,13.0,22.0,9,0.00,,,0.00,461.000000,,2013-05-05 01:11:00,
2013-05-04 18:32:00,91.0,24.0,-100.00,SSE,168,14.0,20.0,9,0.00,,,0.00,248.000000,,2013-05-05 01:32:00,
2013-05-04 18:42:00,91.0,24.0,-100.00,SSE,168,14.0,20.0,9,0.00,,,0.00,248.000000,,2013-05-05 01:42:00,
2013-05-04 18:52:00,91.0,24.0,-100.00,SSE,168,14.0,20.0,9,0.00,,,0.00,248.000000,,2013-05-05 01:52:00,
2013-05-04 19:02:00,91.0,24.0,-100.00,SSE,168,14.0,20.0,9,0.00,,,0.00,248.000000,,2013-05-05 02:02:00,
2013-05-04 19:11:00,91.0,24.0,-100.00,SSE,168,14.0,20.0,9,0.00,,,0.00,248.000000,,2013-05-05 02:11:00,
2013-05-04 19:42:00,85.0,29.0,-100.00,SSE,153,15.0,23.0,13,0.00,,,0.00,78.000000,,2013-05-05 02:42:00,
2013-05-04 19:52:00,85.0,29.0,-100.00,SSE,153,15.0,23.0,13,0.00,,,0.00,78.000000,,2013-05-05 02:52:00,
2013-05-04 20:01:00,85.0,29.0,-100.00,SSE,153,15.0,23.0,13,0.00,,,0.00,78.000000,,2013-05-05 03:01:00,
2013-05-04 20:11:00,85.0,29.0,-100.00,SSE,153,15.0,23.0,13,0.00,,,0.00,78.000000,,2013-05-05 03:11:00,
2013-05-04 20:42:00,80.0,33.0,-100.00,East,79,3.0,19.0,18,0.00,,,0.00,2.000000,,2013-05-05 03:42:00,
2013-05-04 20:53:00,80.0,33.0,-100.00,East,79,3.0,19.0,18,0.00,,,0.00,2.000000,,2013-05-05 03:53:00,
2013-05-04 21:02:00,80.0,33.0,-100.00,East,79,3.0,19.0,18,0.00,,,0.00,2.000000,,2013-05-05 04:02:00,
2013-05-04 21:12:00,80.0,33.0,-100.00,East,79,3.0,19.0,18,0.00,,,0.00,2.000000,,2013-05-05 04:12:00,
2013-05-04 21:33:00,77.0,43.0,-100.00,SSW,209,5.0,11.0,30,0.00,,,0.00,1.000000,,2013-05-05 04:33:00,
2013-05-04 22:02:00,77.0,43.0,-100.00,SSW,209,5.0,11.0,30,0.00,,,0.00,1.000000,,2013-05-05 05:02:00,
2013-05-04 22:12:00,77.0,43.0,-100.00,SSW,209,5.0,11.0,30,0.00,,,0.00,1.000000,,2013-05-05 05:12:00,
2013-05-04 22:42:00,77.0,47.0,-100.00,SSE,166,5.0,12.0,35,0.00,,,0.00,1.000000,,2013-05-05 05:42:00,
2013-05-04 22:52:00,77.0,47.0,-100.00,SSE,166,5.0,12.0,35,0.00,,,0.00,1.000000,,2013-05-05 05:52:00,
2013-05-04 23:01:00,77.0,47.0,-100.00,SSE,166,5.0,12.0,35,0.00,,,0.00,1.000000,,2013-05-05 06:01:00,
2013-05-04 23:11:00,77.0,47.0,-100.00,SSE,166,5.0,12.0,35,0.00,,,0.00,1.000000,,2013-05-05 06:11:00,
2013-05-04 23:42:00,75.0,45.0,-100.00,SSW,201,2.0,9.0,34,0.00,,,0.00,1.000000,,2013-05-05 06:42:00,
2013-05-04 23:52:00,75.0,45.0,-100.00,SSW,201,2.0,9.0,34,0.00,,,0.00,1.000000,,2013-05-05 06:52:00,